Regional Weather Roundup
Issued by NWS Cleveland, OH

Home | Current Version | Previous Version | Text Only | Print | Product List | Glossary Off
Versions: 1 2 3 4 5 6 7 8 9 10 11 12 13 14 15 16 17 18 19 20 21 22 23 24 25 26 27 28 29 30 31 32 33 34 35 36 37 38 39 40 41 42 43 44 45 46 47 48 49 50

000
ASUS41 KCLE 270110
RWRCLE
OHIO REGIONAL WEATHER ROUNDUP
NATIONAL WEATHER SERVICE WILMINGTON, OH
900 PM EDT WED APR 26 2017

NOTE: "FAIR" INDICATES FEW OR NO CLOUDS BELOW 12,000 FEET WITH NO
SIGNIFICANT WEATHER AND/OR OBSTRUCTIONS TO VISIBILITY.

OHZ001>008-015>018-024>027-034-035-043-044-270200-
   NORTHWEST OHIO

CITY           SKY/WX    TMP DP  RH WIND       PRES   REMARKS
DEFIANCE       FAIR      77  57  50 S9        29.51S
FINDLAY        FAIR      75  54  47 S12       29.55R
TOLEDO EXPRESS FAIR      77  57  50 S7        29.53R
TOLEDO EXEC    FAIR      75  57  53 S9        29.54R
LIMA           FAIR      75  56  51 S9        29.56S
$$

OHZ009>014-019>023-028>033-038-089-270200-
   NORTHEAST OHIO

CITY           SKY/WX    TMP DP  RH WIND       PRES   REMARKS
CLE-HOPKINS    FAIR      76  52  43 S9        29.62S
CLE-LAKEFRONT  FAIR      79  52  38 S13       29.59R
CUY CO. ARPT   PTCLDY    77  57  50 S12       29.63R
LORAIN-ELYRIA  FAIR      72  50  45 S9        29.60R
ASHTABULA      FAIR      72  56  57 SE6       29.66R
AKRON-CANTON   FAIR      73  50  44 S10       29.65R
WOOSTER        FAIR      71  53  52 S12       29.64R
MANSFIELD      FAIR      73  50  44 S9        29.63R
YOUNGSTOWN     FAIR      72  56  57 SE8       29.66S
$$

OHZ042-051>053-060>062-070>072-077>081-270200-
  SOUTHWEST OHIO

CITY           SKY/WX    TMP DP  RH WIND       PRES   REMARKS
CINC-COVINGTON MOCLDY    70  52  52 S8        29.58F
CINC-LUNKEN    FAIR      74  52  46 CALM      29.58F
HAMILTON       FAIR      78  51  38 S6        29.58R
DAYTON         MOCLDY    76  50  40 S13       29.59R
WRIGHT-PAT AFB FAIR      76  48  38 S9        29.58S
DAYTON GENERAL FAIR      74  51  44 S10       29.58S
WILMINGTON     FAIR      69  51  52 S7        29.61R
$$

OHZ036-037-039>041-045>050-054>059-063>069-073>076-082>088-270200-
  CENTRAL AND SOUTHEAST OHIO

CITY           SKY/WX    TMP DP  RH WIND       PRES   REMARKS
COLUMBUS       MOCLDY    78  50  37 S9        29.61R
OSU AIRPORT    FAIR      76  53  44 S7        29.60R
BOLTON FIELD   FAIR      72  48  42 S6        29.62R
RICKENBACK AFB FAIR      74  51  44 S8        29.60S
NEWARK         FAIR      74  52  46 SE6       29.62S
MARION         FAIR      72  40  31 S8        29.61R
LANCASTER      FAIR      75  53  46 SE8       29.63S
ZANESVILLE     FAIR      72  52  49 S8        29.65R
NEW PHILLY     FAIR      72  53  51 SE3       29.65S
$$




USA.gov is the U.S. government's official web portal to all federal, state and local government web resources and services.